Satellite: ALMASAT-1
Catalog number: 38078

Epoch time:      12208.56629556
Element set:     419
Inclination:      069.4856 deg
RA of node:       227.9830 deg

Eccentricity: 0.0754158
Arg of perigee: 199.4978 deg
Mean anomaly: 157.5844 deg
Mean motion: 14.10422492 rev/day

Decay rate:     1.1891e-04 rev/day^2
Epoch rev:            2310
Checksum:              341

Satellite: XATCOBEO
Catalog number: 38082

Epoch time:      12208.49366404
Element set:     427
Inclination:      069.4849 deg
RA of node:       225.2324 deg

Eccentricity: 0.0726006
Arg of perigee: 198.0895 deg
Mean anomaly: 159.3082 deg
Mean motion: 14.19036635 rev/day

Decay rate:     2.6829e-04 rev/day^2
Epoch rev:            2316
Checksum:              316

/EX
SB KEPS @ AMSAT $ORB12208.W
Orbital Elements 12208.WEATHER

HR AMSAT ORBITAL ELEMENTS FOR WEATHER SATELLITES FROM WA5QGD FORT WORTH,TX July 26, 2012 Send SUBSCRIBE KEPS/UNSUBSCRIBE KEPS to majordomo@amsat.org only BID: ORB12208.W
TO ALL RADIO AMATEURS BT

Satellite: NOAA-10
Catalog number: 16969
Epoch time: 12207.70947473
Element set: 0007

Inclination:      098.5786 deg
RA of node:       236.0753 deg

Eccentricity: 0.0013005
Arg of perigee: 119.9852 deg
Mean anomaly: 240.2603 deg
Mean motion: 14.27564794 rev/day

Decay rate:       -8.8e-07 rev/day^2
Epoch rev:           34536
Checksum:              320

Satellite: NOAA-11
Catalog number: 19531
Epoch time: 12207.75372370
Element set: 0002

Inclination:      098.7320 deg
RA of node:       292.1014 deg

Eccentricity: 0.0011889
Arg of perigee: 112.1381 deg
Mean anomaly: 248.1060 deg
Mean motion: 14.14973335 rev/day

Decay rate:      -2.31e-06 rev/day^2
Epoch rev:           22996
Checksum:              267

Satellite: NOAA-12
Catalog number: 21263
Epoch time: 12207.93284417
Element set: 0506

Inclination:      098.7274 deg
RA of node:       229.4135 deg

Eccentricity: 0.0014854
Arg of perigee: 088.6173 deg
Mean anomaly: 271.6708 deg
Mean motion: 14.25508391 rev/day

Decay rate:        2.8e-07 rev/day^2
Epoch rev:           10207
Checksum:              296

Satellite: MET-3/5
Catalog number: 21655

Epoch time:      12208.42438597
Element set:     465
Inclination:      082.5582 deg
RA of node:       124.4748 deg

Eccentricity: 0.0012612
Arg of perigee: 220.2654 deg
Mean anomaly: 139.7535 deg
Mean motion: 13.17035820 rev/day

Decay rate:       3.00e-06 rev/day^2
Epoch rev:             705
Checksum:              278

Satellite: MET-2/21
Catalog number: 22782

Epoch time:      12207.84298499
Element set:     481
Inclination:      082.5481 deg
RA of node:       001.8362 deg

Eccentricity: 0.0023617
Arg of perigee: 047.2106 deg
Mean anomaly: 313.1051 deg
Mean motion: 13.83685187 rev/day

Decay rate:       -7.0e-08 rev/day^2
Epoch rev:           95451
Checksum:              299

Satellite: OKEAN-4
Catalog number: 23317
Epoch time: 12207.94141960
Element set: 0986

Inclination:      082.5397 deg
RA of node:       354.9669 deg

Eccentricity: 0.0020100
Arg of perigee: 220.7751 deg
Mean anomaly: 139.1958 deg
Mean motion: 14.83856990 rev/day

Decay rate:       3.67e-06 rev/day^2
Epoch rev:           96055
Checksum:              332

Satellite: NOAA-14
Catalog number: 23455

Epoch time:      12208.60499465
Element set:     967
Inclination:      098.8262 deg
RA of node:       291.6075 deg

Eccentricity: 0.0008931
Arg of perigee: 197.9053 deg
Mean anomaly: 162.2279 deg
Mean motion: 14.13864370 rev/day

Decay rate:        3.0e-07 rev/day^2
Epoch rev:           90643
Checksum:              324

Satellite: NOAA-15
Catalog number: 25338
Epoch time: 12207.67266560
Element set: 0345

Inclination:      098.6924 deg
RA of node:       194.2228 deg

Eccentricity: 0.0010779
Arg of perigee: 002.4617 deg
Mean anomaly: 357.6592 deg
Mean motion: 14.25096788 rev/day

Decay rate:       -6.2e-07 rev/day^2
Epoch rev:           73833
Checksum:              330

Satellite: RESURS
Catalog number: 25394
Epoch time: 12207.96923285
Element set: 0162

Inclination:      098.3229 deg
RA of node:       194.1700 deg

Eccentricity: 0.0002203
Arg of perigee: 104.5210 deg
Mean anomaly: 255.6215 deg
Mean motion: 14.24290829 rev/day

Decay rate:       -9.0e-08 rev/day^2
Epoch rev:           72992
Checksum:              280

Satellite: FENGYUN1
Catalog number: 25730

Epoch time:      12208.89192176
Element set:     657
Inclination:      098.8471 deg
RA of node:       167.1882 deg

Eccentricity: 0.0017530
Arg of perigee: 251.9527 deg
Mean anomaly: 107.9733 deg
Mean motion: 14.09674389 rev/day

Decay rate:       2.65e-06 rev/day^2
Epoch rev:           68020
Checksum:              328

Satellite: OKEAN-0
Catalog number: 25860
Epoch time: 12207.94817543
Element set: 0708

Inclination:      097.9382 deg
RA of node:       169.8063 deg

Eccentricity: 0.0001712
Arg of perigee: 090.7109 deg
Mean anomaly: 269.4296 deg
Mean motion: 14.74247266 rev/day

Decay rate:       1.71e-06 rev/day^2
Epoch rev:           70028
Checksum:              314

Satellite: NOAA-16
Catalog number: 26536
Epoch time: 12207.63571928
Element set: 0833

Inclination:      099.0910 deg
RA of node:       250.3479 deg

Eccentricity: 0.0010188
Arg of perigee: 339.9808 deg
Mean anomaly: 020.0963 deg
Mean motion: 14.12760551 rev/day

Decay rate:      -2.41e-06 rev/day^2
Epoch rev:           61046
Checksum:              299

Satellite: NOAA-17
Catalog number: 27453
Epoch time: 12207.72625895
Element set: 0781

Inclination:      098.3344 deg
RA of node:       232.8136 deg

Eccentricity: 0.0012419
Arg of perigee: 047.6756 deg
Mean anomaly: 312.5453 deg
Mean motion: 14.24461777 rev/day

Decay rate:        4.9e-07 rev/day^2
Epoch rev:           52424
Checksum:              316

Satellite: NOAA-18
Catalog number: 28654
Epoch time: 12207.76472236
Element set: 0263

Inclination:      099.0486 deg
RA of node:       166.1796 deg

Eccentricity: 0.0015248
Arg of perigee: 048.0189 deg
Mean anomaly: 312.2271 deg
Mean motion: 14.11676371 rev/day

Decay rate:       -4.1e-07 rev/day^2
Epoch rev:           37000
Checksum:              298

Satellite: NOAA-19
Catalog number: 33591
Epoch time: 12207.78120721
Element set: 0452

Inclination:      098.8650 deg
RA of node:       147.0945 deg

Eccentricity: 0.0013136
Arg of perigee: 273.7325 deg
Mean anomaly: 086.2339 deg
Mean motion: 14.11363021 rev/day

Decay rate:       -9.6e-07 rev/day^2
Epoch rev:           17845
Checksum:              296

/EX
SB KEPS @ AMSAT $ORB12208.M
Orbital Elements 12208.MISC

HR AMSAT ORBITAL ELEMENTS FOR MANNED AND MISCELLANEOUS SATELLITES FROM WA5QGD FORT WORTH,TX July 26, 2012 Send SUBSCRIBE KEPS/UNSUBSCRIBE KEPS to majordomo@amsat.org only BID: ORB12208.M
TO ALL RADIO AMATEURS BT

Satellite: HUBBLE
Catalog number: 20580

Epoch time:      12207.24947860
Element set:      41
Inclination:      028.4705 deg
RA of node:       254.4395 deg

Eccentricity: 0.0003502
Arg of perigee: 108.6935 deg
Mean anomaly: 251.4009 deg
Mean motion: 15.02639521 rev/day

Decay rate:       6.60e-06 rev/day^2
Epoch rev:            2046
Checksum:              260

Satellite: ISS
Catalog number: 25544

Epoch time:      12208.95090278
Element set:       3
Inclination:      051.6430 deg
RA of node:       283.6980 deg

Eccentricity: 0.0000704
Arg of perigee: 335.9577 deg
Mean anomaly: 013.1873 deg
Mean motion: 15.54728434 rev/day

Decay rate:      5.298e-05 rev/day^2
Epoch rev:           78419
Checksum:              308

Satellite: CO-58
Catalog number: 28895
Epoch time: 12207.58168892
Element set: 0236

Inclination:      097.9071 deg
RA of node:       072.1572 deg

Eccentricity: 0.0018391
Arg of perigee: 034.5341 deg
Mean anomaly: 325.7076 deg
Mean motion: 14.60684301 rev/day

Decay rate:       3.36e-06 rev/day^2
Epoch rev:           35926
Checksum:              324

Satellite: FALCON
Catalog number: 30776
Epoch time: 12207.92849038
Element set: 0409

Inclination:      035.4326 deg
RA of node:       040.1610 deg

Eccentricity: 0.0003962
Arg of perigee: 350.3235 deg
Mean anomaly: 009.7405 deg
Mean motion: 15.07798400 rev/day

Decay rate:      1.779e-05 rev/day^2
Epoch rev:           29610
Checksum:              283

Satellite: MAST
Catalog number: 31126
Epoch time: 12207.96152627
Element set: 0528

Inclination:      097.8747 deg
RA of node:       216.7945 deg

Eccentricity: 0.0093775
Arg of perigee: 350.5734 deg
Mean anomaly: 009.3700 deg
Mean motion: 14.54205958 rev/day

Decay rate:       2.78e-06 rev/day^2
Epoch rev:           27990
Checksum:              327

Satellite: CAPE1
Catalog number: 31130
Epoch time: 12207.54782176
Element set: 0527

Inclination:      097.8823 deg
RA of node:       212.7643 deg

Eccentricity: 0.0101767
Arg of perigee: 005.3025 deg
Mean anomaly: 354.9225 deg
Mean motion: 14.52998650 rev/day

Decay rate:       2.46e-06 rev/day^2
Epoch rev:           27934
Checksum:              299

Satellite: COMPASS
Catalog number: 32787

Epoch time:      12207.90481480
Element set:     364
Inclination:      097.7968 deg
RA of node:       268.3816 deg

Eccentricity: 0.0014053
Arg of perigee: 296.5137 deg
Mean anomaly: 063.4632 deg
Mean motion: 14.84137172 rev/day

Decay rate:       6.12e-06 rev/day^2
Epoch rev:           22955
Checksum:              315

Satellite: AAUSAT2
Catalog number: 32788
Epoch time: 12207.73108799
Element set: 0357

Inclination:      097.7980 deg
RA of node:       268.6140 deg

Eccentricity: 0.0013604
Arg of perigee: 297.4914 deg
Mean anomaly: 062.4917 deg
Mean motion: 14.84469884 rev/day

Decay rate:       9.22e-06 rev/day^2
Epoch rev:           22955
Checksum:              348

